User: anonymous   Login
Location: Wawayanda State Park
(41.1833°N, 74.4333°W)
Time: 11:20:45
(UTC-05:00)
Language:

Landsat 7 - Orbit

View from above orbital plane
View from above orbital plane
View from above satellite
View from above satellite

Ground track
Ground track

The orbit data is extracted from the following two-line orbital elements,

1 25682U 99020A   17054.20266833  .00000056  00000-0  22613-4 0  9999
2 25682  98.2223 126.8827 0000868  57.9596 302.1720 14.57102434949994
Epoch (UTC): 23 February 2017 04:51:50
Eccentricity: 0.0000868
inclination: 98.2223°
perigee height: 702 km
apogee height: 703 km
right ascension of ascending node: 126.8827°
argument of perigee: 57.9596°
revolutions per day: 14.57102434
mean anomaly at epoch: 302.1720°
orbit number at epoch: 94999

The dashed part of the orbit path shows where the satellite is in the earth's shadow,  

DLR